Location: Giengen
(48.6209°N, 10.2441°E)
Time: 17:58:54
(UTC+00:00)

Daily predictions for brighter satellites

Satellite Brightness Start Highest point End
(mag) Time Altitude Azimuth Time Altitude Azimuth Time Altitude Azimuth
ISS -3.7 16:43:07 10° WNW 16:46:28 64° NNE 16:49:50 10° E
RESURS DK-1 4.4 16:46:14 10° NNE 16:47:36 11° NE 16:48:59 10° NE
COSMOS 2455 2.9 16:43:44 10° SSW 16:49:42 70° ESE 16:55:43 10° NE
Cosmos 1455 Rocket 3.7 16:45:42 10° NNW 16:50:02 62° W 16:54:18 10° S
Cosmos 1184 Rocket 3.2 16:49:21 10° NNE 16:51:18 21° ENE 16:53:13 10° SE
DELTA 2 DEB (DPAF) 4.3 16:47:48 10° NNE 16:52:07 53° E 16:56:24 10° S
Cosmos 2251 Rocket 3.8 16:48:07 10° S 16:53:14 50° ESE 16:58:26 10° NNE
Timation 2 Rocket 4.0 16:49:08 10° NNW 16:55:15 61° NE 17:01:35 10° SE
Cosmos 1844 Rocket 3.7 16:51:15 10° N 16:55:46 24° NE 17:00:16 10° E
CZ-4B R/B 4.2 16:52:18 10° ESE 16:56:31 24° ENE 17:00:49 10° N
Cosmos 2227 4.4 16:52:27 10° NNW 16:58:05 51° NE 17:03:41 10° SE
Cosmos 2279 Rocket 4.1 16:52:17 10° S 16:58:28 83° W 17:04:43 10° N
Cosmos 44 3.1 16:54:11 10° SW 16:58:31 85° NW 17:03:02 10° NE
Meteor 2-17 Rocket 4.4 16:52:28 10° N 16:58:39 77° E 17:04:49 10° SSE
CZ-4C R/B 4.2 16:55:47 10° NE 16:59:07 26° E 17:02:19 10° SSE
Cosmos 1763 Rocket 4.3 16:58:15 10° N 17:02:48 29° NE 17:07:17 10° ESE
CZ-4B R/B 2.8 16:58:42 10° SSE 17:02:50 72° ENE 17:06:46 10° N
Meteor 1-21 Rocket 4.5 16:58:27 10° SSE 17:03:52 47° E 17:09:13 10° NNE
USA 290 2.4 17:01:43 10° S 17:04:50 50° ESE 17:07:59 10° NNE
ATLAS 2AS CENTAUR R/B 3.0 16:58:33 10° NW 17:05:29 49° NE 17:11:59 10° ESE
USA 215 4.0 16:59:06 10° SE 17:05:30 56° SW 17:11:58 10° WNW
Cosmos 2278 4.0 17:01:17 10° S 17:06:41 48° ESE 17:12:08 10° NE
SKYMED 2 4.0 17:03:25 10° NNE 17:07:34 42° E 17:11:41 10° S
Cosmos 2360 Rocket 3.7 17:12:35 10° SE 17:15:38 15° E 17:17:13 13° ENE
Meteor 2-1 Rocket 4.3 17:09:59 10° N 17:15:44 57° ENE 17:21:18 10° SSE
DMSP B5D2-2 4.1 17:11:38 10° NNE 17:16:57 77° ESE 17:22:13 10° S
Meteor PRIRODA 4.5 17:15:37 10° S 17:19:05 52° W 17:22:35 10° NNW
Cosmos 1607 3.9 17:13:16 10° SSW 17:19:23 78° SE 17:25:35 10° NE
YAOGAN 1 3.1 17:18:52 10° SE 17:22:47 35° ENE 17:26:42 10° N
Cosmos 2322 Rocket 3.2 17:20:47 10° SSE 17:25:18 26° ESE 17:28:44 15° ENE
SL-4 R/B 1.7 17:22:21 10° W 17:25:48 69° NNW 17:28:15 20° ENE
Cosmos 540 Rocket 4.3 17:21:28 10° N 17:26:00 30° NE 17:30:16 11° ESE
Cosmos 1892 3.1 17:27:35 10° SSE 17:31:02 37° E 17:34:31 10° NNE
ATLAS CENTAUR R/B 1.7 17:27:20 10° SW 17:32:04 82° NW 17:36:12 13° NE
Cosmos 1536 Rocket 3.4 17:28:42 10° S 17:33:00 80° E 17:37:22 10° NNE
Cosmos 407 Rocket 3.4 17:28:34 10° SSW 17:33:42 76° ESE 17:38:50 10° NNE
APEX 4.5 17:28:54 10° S 17:34:47 51° ESE 17:39:57 12° NE
Cosmos 1340 Rocket 2.7 17:31:20 10° S 17:35:12 90° WSW 17:39:09 10° NNE
SL-16 R/B 2.5 17:32:08 10° S 17:37:28 44° ESE 17:42:18 13° NE
PAYLOAD B 4.1 17:35:20 10° SSE 17:40:49 70° ENE 17:46:19 10° NNW
SKYMED 3 4.4 17:36:59 10° NNE 17:41:06 64° ESE 17:45:11 10° S
Cosmos 1606 Rocket 3.5 17:41:14 10° N 17:45:30 55° ENE 17:49:45 10° SSE
TRACE 4.5 17:43:21 10° NNE 17:47:02 79° ESE 17:50:41 10° S
Lacrosse 5 2.7 17:43:38 10° S 17:48:06 32° SE 17:49:51 25° E
Cosmos 1190 Rocket 4.0 17:45:15 10° S 17:50:31 68° ESE 17:55:48 10° NNE
Cosmos 1140 Rocket 3.8 17:45:43 10° SSW 17:50:53 69° WNW 17:56:03 10° NNE
BlueWalker 3 2.4 17:47:08 10° W 17:50:56 52° NNW 17:52:39 29° NE
Cosmos 1825 2.5 17:48:13 10° SSE 17:51:40 39° E 17:52:39 32° NE
Cosmos 1408 2.5 17:49:06 10° SSW 17:52:28 73° W 17:55:55 10° N
Cosmos 1980 Rocket 3.2 17:48:14 10° SW 17:53:39 45° NW 17:59:07 10° NNE
COSMO-SKYMED 1 3.0 17:51:21 10° N 17:55:40 65° WNW 17:59:58 10° SSW
Cosmos 1892 Rocket 4.0 17:52:32 10° SSE 17:56:36 37° E 17:58:11 27° NE
ATLAS 5 CENTAUR R/B 3.8 17:54:27 10° NW 17:56:53 15° NNW 17:59:29 10° NNE
Cosmos 1869 4.0 17:54:48 10° N 17:57:37 31° NE 17:57:37 31° NE
CSL-04 Rocket 4.4 17:57:54 28° ENE 17:58:40 29° ENE 18:03:15 10° N
Cosmos 2237 4.3 17:53:10 10° S 17:58:41 52° ESE 18:02:28 20° NE
Cosmos 2228 3.5 17:55:34 10° NNW 17:59:44 59° W 18:03:53 10° S
IGS 5A 4.0 18:05:00 36° NE 18:05:00 36° NE 18:08:22 10° N
Cosmos 1633 4.1 18:02:50 10° SSE 18:04:00 19° SSE 18:04:00 19° SSE
Cosmos 1745 Rocket 4.4 18:00:14 10° N 18:06:07 40° ENE 18:10:14 18° SE
MOS 1-B 4.3 18:00:44 10° SSE 18:06:32 84° ENE 18:12:22 10° NNW
USA 102 3.8 17:23:07 10° ESE 18:08:00 81° NE 18:46:42 22° WNW
Cosmos 2263 Rocket 4.1 18:03:17 10° NW 18:08:05 30° WSW 18:12:52 10° SSW
CZ-4 R/B 1.3 18:06:27 10° SSE 18:10:33 66° ENE 18:14:37 10° N
DMSP B5D1-3 4.4 18:07:35 10° NNE 18:12:40 62° ESE 18:17:43 10° S
PSLV R/B 4.2 18:12:25 10° S 18:16:00 57° W 18:19:40 10° NNW
Okean O Rocket 1.4 18:13:23 10° SSE 18:17:44 72° ENE 18:22:09 10° N
Meteor 1-11 4.2 18:13:00 10° S 18:18:50 89° W 18:24:40 10° NNE
Cosmos 1726 Rocket 3.4 18:14:34 10° N 18:18:55 87° W 18:23:13 10° S
Lacrosse 5 rocket 1.9 18:19:02 10° NW 18:21:53 38° N 18:21:53 38° N
Cosmos 468 Rocket 3.9 18:17:19 10° NNW 18:22:33 86° WSW 18:27:41 10° SSE
ISS -2.5 18:19:58 10° WNW 18:23:07 36° SSW 18:23:39 33° S
RESURS DK-1 2.6 18:22:21 10° NNW 18:25:55 53° NNE 18:25:55 53° NNE
Cosmos 1954 Rocket 4.0 18:24:21 10° SSW 18:29:36 85° WNW 18:32:56 23° NNE
Cosmos 1553 Rocket 3.8 18:25:50 10° S 18:31:53 76° E 18:38:02 10° NNE
Cosmos 1417 Rocket 4.4 18:28:38 10° S 18:34:46 60° E 18:40:52 10° NNE
IRIDIUM 104 4.2 18:29:36 10° N 18:34:52 88° W 18:40:05 10° S
COSMOS 2455 4.4 18:30:50 10° W 18:36:08 31° NW 18:40:47 13° NNE
CZ-4B R/B 3.6 18:31:25 10° S 18:36:41 61° WSW 18:42:04 10° NNW
SL-08 R/B 4.5 18:32:28 10° N 18:38:43 85° W 18:45:02 10° S
Cosmos 1844 Rocket 2.8 18:34:40 10° NNW 18:40:16 75° WSW 18:43:47 23° SSE
IRIDIUM 114 4.4 18:38:45 10° N 18:43:59 74° W 18:49:11 10° S
Cosmos 1763 Rocket 4.4 18:39:51 10° NNW 18:44:49 47° WSW 18:49:41 10° S
Feng Yun 1-1 Rocket 4.3 18:39:49 10° S 18:45:26 77° WSW 18:50:56 10° NNW
Cosmos 1844 3.8 18:40:46 10° NNW 18:46:36 78° WSW 18:49:23 32° SSE
Spot 1 4.5 18:47:34 52° SSW 18:47:34 52° SSW 18:50:41 10° SSW
Cosmos 2058 Rocket 3.1 18:43:56 10° NNW 18:48:18 77° W 18:48:18 77° W
Cosmos 841 Rocket 3.3 18:49:23 10° NNW 18:54:42 86° ENE 18:54:42 86° ENE
ATLAS 2AS CENTAUR R/B 3.4 18:49:46 10° NW 18:56:28 50° WSW 19:01:41 16° S
Cosmos 2333 Rocket 2.9 18:50:59 10° S 18:54:33 38° S 18:54:33 38° S
Cosmos 2360 Rocket 2.0 18:53:06 10° SSW 18:58:45 87° ESE 18:59:03 81° NE
Cosmos 2219 Rocket 4.2 18:55:34 10° S 18:56:23 14° S 18:56:23 14° S
Cosmos 2278 Rocket 3.8 18:58:46 10° NNW 19:01:28 23° N 19:01:28 23° N
SL-4 R/B 3.8 19:01:51 10° WNW 19:03:35 26° WNW 19:03:35 26° WNW
S3M 3.9 18:59:01 10° S 19:05:24 82° E 19:11:49 10° N
Cosmos 540 Rocket 4.4 19:02:51 10° NNW 19:07:46 46° WSW 19:10:12 27° SSW
Cosmos 2322 Rocket 2.6 19:03:25 10° SW 19:08:57 58° WNW 19:10:36 42° N
ATLAS CENTAUR R/B 3.7 19:07:46 10° W 19:11:15 21° NNW 19:12:01 20° NNW
SL-16 R/B 3.5 19:16:27 10° WSW 19:21:41 37° NW 19:24:13 25° N
Lacrosse 5 3.0 19:25:43 10° WSW 19:29:05 41° W 19:29:05 41° W
ATLAS 5 CENTAUR R/B 4.5 19:40:37 10° NNW 19:40:51 11° NNW 19:40:51 11° NNW
BREEZE-M DEB (TANK) 4.5 19:15:08 10° WNW 19:45:26 76° SSW 19:47:04 65° SSE
CZ-4 R/B 4.5 19:43:43 10° WSW 19:45:50 14° W 19:47:57 10° WNW
BREEZE-M DEB (TANK) 4.3 19:38:27 10° WSW 19:45:22 41° WSW 19:45:22 41° WSW
BREEZE-M DEB (TANK) 4.4 19:54:02 10° W 19:57:31 49° SW 19:57:31 49° SW
